Vorticity
4 4 6 7 8 7 4 5 5 7 7 12 11 9 -2 7 19 1 3 2 6 6 5 6 10 9 14 14 11 2 11 -2 11 6 -5 8 5 29 26 20 16 17 20 11 18
4 4 5 6 7 8 5 3 4 8 9 12 13 2 -1 7 18 -1 3 5 7 6 6 6 6 16 17 14 5 9 11 14 4 18 11 8 6 -2 17 23 32 20 25 10 18
4 4 4 5 7 8 5 3 5 8 11 13 6 9 -2 8 19 -1 4 6 6 4 7 9 12 15 20 8 4 2 6 4 12 16 8 8 18 12 11 -15 10 37 13 4 13
4 5 5 5 5 8 6 3 5 8 11 16 -1 14 -2 8 11 1 4 7 6 6 8 6 12 17 16 9 21 6 11 10 24 7 9 3 19 -1 5 11 10 29 13 6 5
4 6 6 5 5 6 7 3 5 8 11 13 6 13 -3 8 1 3 5 7 6 7 7 10 11 15 9 19 11 9 8 26 8 11 19 -6 -1 2 -6 24 7 25 14 10 5
4 6 6 6 6 6 8 4 5 7 13 18 -7 13 -3 8 2 3 6 9 8 8 10 13 9 8 12 18 15 17 15 23 11 6 9 15 -3 5 12 6 18 16 17 9 8
4 5 6 7 5 6 8 5 5 9 13 20 -10 21 -4 6 2 5 7 10 9 9 12 11 8 10 9 31 8 14 21 -4 13 14 8 21 -5 -3 17 3 33 14 11 4 4
5 4 6 7 4 5 7 6 4 9 14 16 -6 24 -10 5 3 6 6 9 9 10 15 10 8 1 15 13 19 22 -11 18 12 1 10 28 10 11 19 9 22 6 12 2 3
5 4 6 5 5 5 7 6 4 8 15 12 -3 23 -10 3 -2 5 8 12 9 12 14 6 8 -1 8 11 4 -16 3 -1 21 -2 16 15 35 16 24 22 15 13 5 7 10
4 4 5 5 6 5 7 7 5 12 10 13 1 20 -1 6 1 8 7 12 9 16 14 10 16 1 8 16 2 -5 9 6 23 4 2 3 7 3 25 21 30 9 7 11 19
5 5 5 5 5 6 7 8 6 15 4 14 -5 -2 5 3 -0 6 7 15 10 16 14 3 13 4 13 14 5 19 1 12 32 -2 21 -15 -29 13 18 32 6 31 9 15 21
5 4 5 3 6 5 7 8 7 6 15 18 9 -0 5 3 4 1 8 19 15 17 5 29 10 -5 17 13 1 16 5 12 1 8 29 17 -34 18 7 16 31 32 5 16 13
6 5 5 4 4 6 6 8 6 12 18 19 5 1 3 4 2 6 10 14 16 12 16 -11 10 -4 19 7 4 11 4 12 11 24 -31 42 9 14 1 10 22 21 13 18 16
4 4 5 5 0 4 8 8 8 11 22 12 6 -1 5 9 -17 8 9 20 17 6 21 -2 14 -5 19 12 -8 22 29 18 9 -3 8 41 2 -32 6 1 13 22 34 14 7
7 4 3 4 7 2 7 8 8 21 8 4 3 1 4 6 3 2 9 15 12 -3 18 -3 3 -6 1 24 -9 5 43 10 10 -10 -8 -6 21 -78 5 16 0 13 27 23 15
6 4 7 3 9 2 9 9 12 16 14 -1 1 3 7 2 6 7 10 13 8 2 7 6 -16 7 5 36 -19 23 36 2 -0 15 0 5 38 -46 -7 10 9 16 27 30 16
7 5 5 4 7 1 10 9 24 10 8 9 -0 8 6 3 7 6 12 3 16 42 3 28 -18 26 -1 20 -10 14 59 4 3 3 -4 4 16 -14 -15 14 7 12 20 20 15
6 5 4 4 12 1 9 12 15 8 -0 7 6 12 3 5 6 9 13 1 6 10 7 -7 16 20 5 2 33 5 11 30 6 7 -2 16 -10 -12 -16 17 9 16 19 20 19
2 4 3 6 24 -1 9 19 3 8 13 4 8 15 4 1 18 13 17 -3 3 7 37 8 2 2 10 -2 29 -1 17 9 15 12 14 8 -6 0 6 11 10 15 21 29 17
7 -4 13 11 26 -3 7 -1 -5 8 4 9 10 7 4 4 13 13 16 -5 8 6 7 10 16 -3 14 1 6 16 20 12 10 6 9 3 3 -26 2 7 10 11 15 25 17
22 -4 6 4 20 8 3 1 8 12 10 13 6 5 4 4 14 7 -0 12 6 5 7 19 -8 12 17 -4 1 20 12 39 16 15 9 10 3 -18 1 9 10 8 12 18 20
-6 9 11 7 21 15 1 11 8 13 9 6 11 7 7 4 15 6 4 11 7 6 10 15 -5 18 3 2 2 -7 5 15 19 -9 5 9 10 -18 2 10 7 9 11 17 20
35 10 -1 13 17 18 6 1 6 13 8 13 5 6 7 6 17 5 5 13 7 7 7 12 -5 12 11 6 -5 -3 2 4 30 16 5 16 -7 13 10 7 5 9 11 17 20
12 5 3 11 15 13 6 8 1 5 12 8 4 6 5 7 5 4 6 6 10 7 8 12 9 8 7 -0 2 -1 7 -0 10 15 -5 16 -4 3 10 9 8 9 10 12 17
3 -4 13 -20 17 11 6 15 3 17 11 11 14 6 6 9 10 1 7 8 10 5 10 7 11 9 12 17 9 1 10 3 5 8 20 -5 12 6 7 8 9 8 8 10 19
-1 20 -2 -2 15 28 20 10 1 6 7 13 5 9 6 7 5 7 9 10 14 7 10 5 -3 9 22 9 6 1 23 1 3 11 9 9 14 10 7 15 7 8 9 10 16
-4 -11 15 -3 21 19 8 4 3 16 16 8 10 7 5 5 5 6 6 10 12 9 8 8 7 22 11 6 14 28 2 -0 -1 19 -0 7 7 11 8 13 9 7 7 8 12
Height
3152 3150 3149 3146 3143 3141 3138 3135 3132 3129 3126 3124 3120 3118 3116 3112 3109 3106 3103 3098 3091 3087 3081 3075 3067 3061 3058 3055 3052 3050 3048 3045 3040 3037 3033 3031 3027 3026 3019 3015 3013 3013 3010 3012 3014
3151 3149 3148 3145 3143 3140 3137 3133 3131 3128 3125 3123 3120 3117 3115 3111 3108 3105 3101 3096 3090 3084 3078 3071 3066 3060 3056 3053 3051 3050 3046 3043 3041 3037 3031 3028 3024 3019 3015 3011 3007 3005 3005 3009 3009
3150 3149 3146 3144 3142 3139 3135 3133 3130 3127 3124 3121 3119 3116 3115 3111 3108 3104 3100 3094 3088 3081 3075 3069 3064 3058 3054 3052 3049 3046 3044 3040 3038 3034 3029 3025 3019 3017 3011 3005 3004 3000 2999 3002 3003
3149 3148 3146 3143 3139 3138 3133 3131 3129 3126 3122 3120 3118 3115 3114 3112 3110 3104 3097 3092 3085 3079 3073 3067 3062 3057 3054 3052 3048 3044 3042 3038 3034 3032 3026 3023 3018 3015 3009 3004 3000 2996 2998 2998 2999
3147 3146 3145 3142 3139 3136 3132 3129 3128 3124 3121 3119 3117 3114 3113 3111 3108 3103 3096 3089 3083 3078 3071 3066 3061 3055 3053 3048 3044 3041 3038 3036 3033 3031 3026 3023 3017 3014 3009 3002 2998 2996 2996 2998 2997
3145 3144 3143 3140 3138 3135 3131 3128 3126 3123 3119 3118 3116 3114 3112 3110 3105 3101 3095 3088 3082 3075 3070 3064 3058 3055 3050 3048 3044 3041 3037 3035 3033 3029 3025 3021 3017 3014 3008 3001 2998 2996 2996 2995 2995
3143 3142 3140 3139 3136 3134 3130 3127 3125 3122 3118 3116 3115 3113 3112 3110 3103 3096 3093 3087 3080 3074 3069 3064 3059 3057 3053 3048 3046 3042 3039 3036 3031 3028 3024 3020 3017 3012 3007 3002 2995 2995 2993 2992 2991
3142 3141 3138 3136 3134 3132 3128 3126 3123 3121 3117 3115 3113 3111 3110 3108 3104 3101 3091 3084 3079 3074 3069 3064 3059 3056 3052 3050 3046 3042 3040 3037 3033 3027 3023 3020 3019 3014 3006 3001 2996 2993 2991 2991 2991
3139 3139 3137 3135 3133 3129 3127 3124 3121 3119 3116 3115 3113 3110 3109 3106 3103 3097 3090 3085 3079 3074 3068 3064 3061 3057 3053 3047 3043 3039 3040 3038 3033 3029 3025 3021 3018 3014 3006 3000 2996 2994 2992 2990 2990
3136 3135 3135 3134 3131 3129 3126 3122 3119 3117 3115 3114 3112 3112 3109 3106 3100 3092 3087 3083 3078 3073 3068 3065 3061 3057 3050 3044 3044 3039 3037 3038 3033 3032 3029 3024 3021 3016 3006 3000 2996 2994 2993 2991 2989
3133 3132 3131 3130 3128 3126 3124 3121 3121 3117 3113 3112 3111 3110 3107 3105 3101 3096 3089 3083 3078 3074 3069 3064 3060 3053 3051 3048 3048 3044 3040 3037 3033 3030 3028 3024 3021 3016 3009 3001 2996 2995 2993 2992 2991
3130 3129 3129 3128 3126 3123 3122 3118 3116 3116 3110 3108 3108 3108 3105 3103 3100 3095 3091 3084 3077 3072 3068 3065 3060 3057 3054 3049 3048 3045 3041 3034 3033 3031 3028 3026 3024 3020 3011 3004 2999 2996 2995 2994 2995
3127 3126 3126 3125 3123 3122 3119 3116 3113 3110 3108 3106 3106 3106 3103 3101 3097 3093 3087 3081 3074 3071 3067 3064 3064 3061 3053 3049 3045 3041 3042 3037 3033 3031 3028 3025 3024 3020 3015 3009 3005 3001 2999 2999 3001
3124 3122 3122 3122 3121 3120 3117 3113 3109 3107 3105 3106 3104 3103 3100 3095 3095 3090 3085 3081 3074 3073 3068 3066 3064 3061 3054 3048 3043 3039 3039 3037 3034 3031 3031 3025 3026 3022 3014 3009 3005 3000 2999 3000 2999
3119 3117 3117 3117 3115 3116 3114 3109 3108 3106 3106 3105 3102 3101 3098 3097 3095 3090 3086 3079 3074 3073 3072 3069 3064 3057 3053 3048 3046 3043 3036 3035 3034 3032 3031 3028 3027 3027 3015 3002 3003 3003 3000 2998 2998
3113 3112 3112 3113 3112 3113 3110 3107 3106 3107 3101 3100 3099 3098 3096 3094 3093 3091 3086 3082 3076 3072 3069 3068 3066 3061 3057 3051 3046 3042 3036 3037 3034 3032 3033 3034 3032 3030 3020 3022 3016 3011 3005 3002 3000
3107 3107 3108 3108 3108 3109 3108 3106 3106 3099 3101 3099 3096 3096 3095 3091 3090 3089 3085 3080 3075 3072 3071 3069 3067 3062 3058 3051 3048 3042 3036 3036 3039 3039 3040 3036 3035 3038 3034 3027 3017 3007 3002 3001 3000
3101 3102 3102 3102 3103 3105 3105 3104 3103 3096 3095 3095 3094 3094 3093 3089 3087 3086 3085 3080 3077 3074 3071 3070 3066 3066 3063 3058 3052 3047 3046 3048 3051 3048 3043 3038 3039 3041 3037 3031 3024 3015 3009 3003 3001
3096 3098 3097 3098 3099 3100 3102 3099 3097 3095 3093 3091 3091 3091 3090 3088 3087 3084 3082 3079 3077 3075 3075 3073 3071 3070 3066 3061 3057 3052 3051 3053 3051 3049 3046 3044 3042 3040 3037 3031 3024 3016 3011 3007 3004
3091 3093 3093 3093 3094 3095 3097 3095 3094 3093 3091 3090 3090 3090 3089 3087 3086 3083 3082 3081 3079 3077 3074 3074 3072 3071 3068 3066 3064 3059 3055 3055 3055 3057 3055 3046 3046 3043 3031 3024 3023 3017 3012 3011 3010
3085 3086 3087 3087 3089 3091 3091 3091 3091 3090 3090 3090 3089 3088 3088 3086 3084 3084 3083 3083 3080 3079 3076 3073 3074 3072 3068 3066 3066 3063 3057 3058 3058 3060 3061 3055 3049 3047 3039 3032 3025 3022 3018 3014 3011
3078 3080 3082 3082 3085 3084 3084 3087 3087 3088 3087 3087 3088 3085 3085 3084 3082 3083 3082 3081 3080 3079 3077 3075 3073 3069 3069 3069 3068 3066 3061 3059 3059 3060 3060 3060 3052 3048 3043 3037 3032 3026 3020 3017 3013
3071 3074 3075 3077 3078 3079 3080 3082 3083 3084 3084 3084 3085 3085 3084 3083 3084 3082 3081 3081 3079 3079 3077 3075 3073 3069 3067 3069 3067 3067 3063 3061 3058 3060 3059 3061 3053 3048 3044 3040 3034 3027 3022 3018 3013
3067 3068 3069 3071 3072 3073 3074 3077 3080 3080 3081 3081 3082 3083 3083 3081 3082 3082 3080 3080 3078 3078 3077 3076 3073 3071 3071 3070 3069 3067 3065 3064 3060 3058 3057 3057 3051 3046 3041 3035 3032 3030 3027 3022 3015
3060 3061 3062 3065 3066 3068 3068 3073 3075 3076 3078 3079 3080 3079 3080 3079 3080 3079 3078 3078 3077 3076 3075 3075 3073 3069 3066 3065 3065 3064 3062 3061 3060 3058 3055 3053 3050 3046 3040 3034 3030 3025 3019 3016 3014
3053 3056 3058 3060 3061 3064 3064 3068 3070 3073 3075 3076 3077 3077 3078 3076 3079 3075 3076 3075 3075 3075 3074 3073 3071 3066 3064 3063 3063 3062 3060 3061 3059 3056 3055 3051 3048 3045 3043 3037 3032 3026 3021 3017 3011
3045 3049 3053 3055 3056 3059 3061 3063 3066 3069 3072 3074 3075 3075 3074 3075 3075 3074 3074 3073 3073 3073 3072 3071 3068 3064 3063 3061 3061 3061 3060 3059 3059 3057 3055 3051 3047 3042 3040 3036 3032 3027 3020 3015 3011